Presure
142 134 140 148 164 133 135 155 152 126 144 168 121 156 158 125 124 116 134 141 177 161 185 182 165 171 191 170 143 167 171 148 171 169 148 148 137 162
133 159 153 135 134 147 135 153 138 134 148 151 154 123 119 126 143 129 149 138 173 155 111 175 174 192 192 161 165 157 131 161 166 142 145 175 170 179
152 181 135 156 155 148 154 138 152 143 117 150 141 150 121 167 180 139 129 157 186 103 162 154 159 167 155 171 173 146 161 169 156 154 162 169 169 158
180 193 142 161 177 128 162 136 141 170 178 186 156 118 151 127 127 137 193 184 166 154 180 138 169 176 124 183 109 119 118 166 119 132 175 174 181 177
212 144 236 153 137 144 122 146 167 145 166 159 152 142 142 133 134 138 151 143 141 125 140 193 164 190 164 122 114 152 151 125 170 173 170 175 196 189
266 367 170 291 149 142 144 142 171 140 141 152 150 138 140 150 137 153 133 149 161 156 178 174 155 171 168 160 117 131 150 184 160 150 158 162 207 238
206 397 148 354 361 129 310 187 333 240 169 138 102 135 120 135 139 130 150 162 150 151 161 178 153 157 169 167 120 141 187 138 170 217 174 165 250 207
155 144 168 167 168 132 141 137 133 131 127 129 125 117 127 158 165 150 162 115 203 168 125 136 236 111 160 171 157 203 157 229 219 169 257 239 249 270
355 219 139 140 334 195 143 141 133 136 191 181 147 140 146 135 132 217 176 227 166 198 206 218 167 170 130 168 165 241 244 224 253 252 268 233 247 246
335 159 148 298 320 301 143 143 150 144 141 128 142 144 131 332 145 230 153 152 231 224 225 259 256 149 250 249 135 156 204 253 269 281 176 211 250 244
150 159 342 146 165 291 315 352 145 135 228 121 307 321 163 274 308 177 303 295 286 275 272 163 155 262 241 247 253 240 264 277 181 252 257 256 230 210
323 322 321 281 149 316 310 318 318 334 320 174 149 165 295 295 273 294 296 286 267 272 253 244 159 250 289 160 274 207 170 242 142 225 206 228 212 210
275 295 301 313 306 308 311 311 316 316 320 323 318 321 284 284 298 267 259 250 264 299 275 272 200 148 256 219 245 241 233 229 219 210 197 198 199 213
249 254 257 259 262 272 278 279 278 279 282 282 283 249 284 278 274 273 268 255 136 212 194 244 240 162 162 227 225 140 185 206 215 220 223 213 211 200
240 237 238 239 241 246 247 242 242 243 249 247 245 250 249 241 149 229 241 242 153 228 182 163 216 213 217 182 166 205 219 220 162 230 234 197 206 214
228 223 225 230 234 237 237 238 241 235 228 230 205 238 201 239 218 150 217 150 227 226 223 223 216 192 219 216 209 217 236 235 201 207 207 216 225 227
234 225 212 226 227 232 231 228 225 229 231 229 229 234 217 214 221 215 189 179 219 185 221 227 225 180 231 191 215 237 203 210 220 220 233 237 233 263
223 228 233 223 220 237 225 204 223 221 225 229 227 179 211 207 190 222 216 219 215 194 210 175 171 134 258 218 187 206 170 205 225 178 293 518 573 604
221 219 227 217 221 223 218 218 225 232 217 218 216 222 225 219 222 185 206 222 217 219 225 235 271 195 200 197 215 155 228 242 288 363 532 517 553 584
224 226 222 211 211 213 224 222 218 221 228 226 212 226 214 214 212 216 215 221 223 246 264 255 222 198 198 211 143 191 270 289 433 530 521 542 535 574
224 222 225 233 230 226 230 228 229 230 228 211 230 227 209 223 228 218 221 233 260 256 222 198 195 203 214 177 246 260 279 424 524 514 482 476 468 490
240 236 234 231 224 217 220 235 225 209 206 232 212 217 214 223 224 237 232 240 241 186 192 201 206 210 147 241 215 277 335 476 438 468 442 437 427 434
164 184 165 249 241 160 201 231 226 227 227 226 226 227 227 227 233 235 255 257 193 200 201 208 210 201 235 255 275 300 499 446 442 461 432 404 397 406
Wind_Speed
66 61 60 66 68 46 52 60 66 40 56 56 43 54 57 40 44 46 49 47 55 53 58 56 53 56 65 54 47 55 57 50 60 60 46 57 52 61
54 74 68 52 47 53 47 61 51 51 58 65 65 44 40 47 54 48 53 52 62 52 50 58 61 68 66 56 58 48 53 58 63 52 54 69 66 72
65 61 45 67 70 60 65 50 63 54 44 65 55 58 47 62 55 53 49 58 69 49 58 51 59 58 52 62 60 50 58 61 64 65 69 69 66 60
67 64 54 67 78 39 70 45 53 74 73 81 66 47 60 50 50 52 81 66 63 55 66 49 60 65 58 68 64 61 63 65 65 62 73 76 81 77
63 53 63 61 40 52 48 56 74 51 72 68 68 60 57 52 53 52 58 49 49 52 52 78 66 74 66 67 67 66 58 69 71 72 72 76 85 79
54 59 61 66 54 50 51 50 77 50 56 67 72 60 58 65 53 65 56 60 68 65 73 71 60 68 70 68 65 64 60 78 67 63 68 70 85 90
50 41 52 62 65 40 66 70 97 87 74 54 49 58 54 59 58 53 64 69 64 64 66 77 65 74 73 75 69 67 82 66 77 95 78 72 90 82
52 50 54 56 59 44 46 42 43 45 46 48 52 55 59 74 75 68 76 60 98 76 57 60 110 72 66 77 80 94 70 104 97 77 92 87 87 79
12 40 47 48 32 53 49 49 49 49 62 70 62 60 64 61 64 101 84 108 77 93 96 103 74 76 69 76 75 105 101 96 97 92 88 76 77 75
9 46 51 29 32 40 54 55 57 59 59 56 58 62 63 72 68 95 72 70 85 86 90 98 100 77 96 96 70 75 84 90 87 81 78 75 74 75
51 50 13 55 57 32 29 26 59 56 46 57 51 52 61 59 64 71 70 74 75 78 80 73 74 85 84 86 86 83 75 73 76 73 74 74 79 83
16 12 9 14 57 11 17 18 21 17 26 64 65 69 48 52 58 59 60 62 66 67 69 72 73 75 62 74 60 75 78 67 59 82 87 83 86 87
16 13 9 6 6 4 1 2 3 9 13 14 18 19 40 42 37 47 49 54 52 44 50 48 64 71 56 65 63 69 74 79 86 87 89 90 90 94
3 6 7 5 3 7 4 2 1 3 6 9 11 27 17 21 24 26 30 40 75 56 63 53 57 76 77 69 71 66 85 88 89 92 95 97 98 94
6 7 7 8 8 5 7 13 15 18 14 17 21 19 22 31 71 42 41 44 73 56 69 76 68 73 74 79 65 84 86 89 77 99 104 92 99 106
22 27 25 23 21 20 20 20 20 26 32 34 51 33 57 38 48 72 55 73 58 61 65 67 71 77 77 79 83 86 93 96 92 97 98 105 112 111
25 31 42 31 31 28 31 36 40 38 37 40 40 40 49 54 54 57 64 69 65 71 70 72 75 63 83 80 86 94 89 94 101 105 112 110 108 129
38 35 34 40 43 33 40 52 44 47 44 42 44 63 58 62 63 61 64 67 69 68 72 69 59 59 89 85 81 92 77 96 110 78 127 89 66 58
47 49 46 49 47 47 50 50 47 47 53 53 57 57 58 61 64 69 68 72 73 77 81 86 85 77 81 87 98 66 107 112 123 133 64 68 68 55
55 56 56 56 57 57 57 58 58 58 57 58 63 63 65 67 68 71 74 77 80 81 84 81 78 79 84 89 72 89 118 123 95 56 50 43 42 41
63 61 63 65 67 66 67 67 67 67 66 65 69 71 70 73 76 76 79 84 83 81 78 76 78 83 90 79 101 109 119 87 55 38 27 21 17 18
77 74 73 72 70 68 69 73 71 68 68 74 72 73 74 78 79 85 83 85 80 72 76 79 83 86 70 99 90 112 118 49 51 32 6 7 7 7
48 53 49 83 84 47 65 81 78 79 79 80 81 81 82 83 86 87 86 83 73 76 78 84 85 82 98 103 106 112 35 34 35 21 5 11 12 10
Wind_Direction
269 269 274 271 254 275 274 262 263 277 278 260 272 275 271 289 286 286 291 288 283 281 288 286 285 288 289 293 300 301 299 302 305 303 304 309 301 312
264 256 260 265 272 265 273 264 278 269 273 271 271 275 282 285 280 284 284 286 284 288 294 283 288 287 289 294 297 292 297 299 305 301 301 306 309 308
258 249 267 257 264 270 264 276 265 276 263 267 278 273 276 273 268 278 288 285 280 290 290 293 285 291 289 293 295 290 299 298 300 302 301 304 306 304
252 253 253 259 249 255 262 269 271 257 257 260 277 266 271 276 279 286 275 274 279 280 283 282 285 286 288 290 297 294 297 298 297 297 299 302 300 304
249 257 245 256 257 263 257 269 258 272 261 264 272 277 275 279 273 288 290 291 289 282 283 283 286 287 288 290 294 294 295 296 298 297 299 298 295 295
246 244 256 242 260 259 262 262 257 266 267 266 267 274 275 279 285 287 279 285 289 285 280 281 286 287 286 291 293 293 294 291 295 295 294 295 292 290
251 236 253 233 237 249 240 255 240 251 260 262 289 276 277 283 284 280 289 289 280 280 288 282 289 286 285 288 290 293 287 296 293 291 292 292 288 289
254 254 248 249 251 253 257 258 256 257 258 263 267 272 275 276 275 286 285 280 270 283 281 284 274 292 290 287 288 284 289 288 289 292 288 288 289 284
160 251 251 254 218 257 259 259 254 258 262 255 268 271 277 275 279 260 269 264 278 272 274 273 282 285 287 286 286 283 284 285 286 287 288 287 287 285
223 253 255 235 233 239 260 262 262 266 265 270 272 275 274 249 275 261 279 279 268 270 269 266 271 283 276 278 291 289 286 284 283 283 288 287 286 285
255 256 222 258 254 246 246 239 262 263 258 271 252 245 269 252 249 269 253 257 259 262 264 277 282 272 277 277 278 282 282 283 286 285 286 285 285 284
85 101 127 236 257 228 240 238 238 233 242 264 270 270 247 249 255 253 254 256 262 264 269 271 282 273 275 290 282 286 284 283 280 282 285 283 283 285
58 69 63 77 70 43 325 244 242 240 242 243 244 248 251 254 257 259 261 263 265 265 267 269 278 289 275 277 278 279 280 282 283 285 287 288 288 288
43 41 62 80 69 42 42 52 132 250 227 229 240 261 244 251 256 260 259 261 282 276 277 273 276 282 284 278 279 273 286 284 284 286 287 288 288 284
192 219 250 261 262 280 268 253 252 254 260 258 257 265 265 261 273 267 267 269 279 271 277 278 272 274 277 281 279 284 285 286 294 284 282 287 286 285
232 235 242 240 233 234 236 241 247 246 254 256 262 256 265 260 265 278 265 280 268 270 272 275 277 280 282 283 282 285 285 284 285 285 285 284 283 283
251 243 250 243 245 249 246 246 247 252 250 252 267 265 262 260 263 268 271 273 272 278 279 282 284 287 287 288 283 284 285 285 286 286 286 286 287 285
266 269 268 253 251 266 252 259 255 257 262 267 268 268 264 266 273 271 272 276 279 282 284 289 286 271 290 290 286 291 280 291 293 286 293 295 293 292
268 269 263 264 265 262 261 262 261 263 260 260 261 267 269 272 274 272 279 281 282 284 287 288 291 291 293 295 297 275 295 294 300 303 301 299 295 291
268 267 266 265 266 266 266 267 267 267 266 266 270 271 272 274 277 279 282 283 284 289 291 289 288 293 295 295 285 295 304 306 307 308 306 301 302 298
267 267 267 265 266 266 266 265 266 267 267 269 269 271 276 276 278 280 283 286 290 290 290 293 296 296 298 292 304 308 308 312 314 307 304 308 309 278
263 265 266 266 266 266 267 265 266 268 269 269 272 272 275 277 280 284 284 288 289 291 292 294 296 299 287 305 304 312 317 313 314 304 269 12 346 276
268 268 268 262 262 265 267 265 266 268 270 271 272 274 277 278 280 281 287 286 288 290 293 297 299 301 304 311 315 316 332 324 317 296 269 119 98 116